Location: Peebles
(55.6412°N, 3.1714°W)
Time: 06:05:27
(UTC+01:00)

NOAA 16 DEB - Pass Details

Date: 07 July 2022
Orbit: 836 x 886 km, 98.9° (Epoch: 10 August)

Event Time Altitude Azimuth Distance (km) Brightness Sun altitude
Exits shadow 22:46:54 - 162° (SSE) 2,853 ? -5.5°
Reaches altitude 10° 22:47:56 10° 162° (SSE) 2,447 ? -5.6°
Maximum altitude 22:53:22 88° 250° (WSW) 848 ? -6.0°
Drops below altitude 10° 22:58:52 10° 343° (NNW) 2,475 ? -6.5°
Sets 23:01:15 0° 344° (NNW) 3,419 ? -6.6°
